Tracking 22459 objects as of 3-Mar-2021
HD Live streaming from Space Station
objects crossing your sky now

TITAN 3C TRANSTAGE DEB

Track TITAN 3C TRANSTAGE DEB now!
10-day predictions


NORAD ID: 28808
Int'l Code: 1965-108CA
Perigee: 299.6 km
Apogee: 20,216.0 km
Inclination: 27.8 °
Period: 355.7 minutes
Semi major axis: 16628 km
RCS: 0.01 m2 (small)
Launch date: December 21, 1965
Source: United States (US)
Launch site: AIR FORCE EASTERN TEST RANGE (AFETR)

Note: This is SATELLITE DEBRIS
aabbcc
Your satellite tracking list
Your tracking list is empty




NASA's NSSDC Master Catalog

Two Line Element Set (TLE):
1 28808U 65108CA  20318.08319190 +.00000855 +00000-0 +24282-3 0  9990
2 28808 027.7609 245.8736 5988522 189.4103 150.4983 04.04866423257516
Source of the keplerian elements: AFSPC